This is the latest recevied weather packets stored in our database for station/object OE-11073. If no packets are shown the sender has not sent any weather packets the latest 10 day(s).
| Time | Temp. | Humidity | Pressure | Rain* | Wind** | Luminosity | Snow |
|---|---|---|---|---|---|---|---|
| 1788170711 | 19.44° C | 73% | - | 0 mm | - | 742 W/m² | - |
| 1788170111 | 18.89° C | 78% | - | 0 mm | - | 727 W/m² | - |
| 1788169284 | 18.33° C | 83% | - | 0 mm | - | 298 W/m² | - |
| 1788168911 | 17.78° C | 84% | - | 0 mm | - | 260 W/m² | - |
| 1788168311 | 17.78° C | 85% | - | 0 mm | - | 214 W/m² | - |
| 1788167484 | 17.78° C | 85% | - | 0 mm | - | 168 W/m² | - |
| 1788167111 | 17.22° C | 85% | - | 0 mm | - | 161 W/m² | - |
| 1788166511 | 17.22° C | 90% | - | 0 mm | - | 145 W/m² | - |
| 1788165684 | 17.22° C | 88% | - | 0 mm | - | 107 W/m² | - |
| 1788164711 | 17.22° C | 87% | - | 0 mm | - | 54 W/m² | - |
| 1788163884 | 17.22° C | 86% | - | 0 mm | - | 46 W/m² | - |
| 1788163511 | 16.67° C | 86% | - | 0 mm | - | 46 W/m² | - |
| 1788162911 | 17.22° C | 87% | - | 0 mm | - | 46 W/m² | - |
| 1788161711 | 17.22° C | 87% | - | 0 mm | - | 115 W/m² | - |
| 1788161111 | 17.22° C | 86% | - | 0 mm | - | 168 W/m² | - |
| 1788160284 | 16.67° C | 88% | - | 0 mm | - | 153 W/m² | - |
| 1788159911 | 16.67° C | 88% | - | 0 mm | - | 168 W/m² | - |
| 1788159311 | 16.67° C | 90% | - | 0 mm | - | 130 W/m² | - |
| 1788158484 | 16.67° C | 89% | - | 0 mm | - | 130 W/m² | - |
| 1788158111 | 16.11° C | 92% | - | 0 mm | - | 107 W/m² | - |
| 1788157511 | 16.11° C | 93% | - | 0 mm | - | 84 W/m² | - |
| 1788156684 | 15.56° C | 93% | - | 0 mm | - | 69 W/m² | - |
| 1788156311 | 15.56° C | 94% | - | 0 mm | - | 61 W/m² | - |
| 1788155711 | 15.56° C | 94% | - | 0.25 mm | - | 31 W/m² | - |
| 1788154884 | 15.56° C | 92% | - | 0.51 mm | - | 23 W/m² | - |
* Rain latest hour (hover to see other rain measurements)
** Current wind speed in m/s (hover to see current wind gust speed)